"Time","Temp","Dewpoint","Humidity","Pressure","Direction","Speed","Gust","Precip","PrecipRate"
"00:04:59","48.5","34.4","58.1","30.00","14","0.7","3.6","0.00","0.00"
"00:09:59","48.2","34.3","58.5","30.00","11","0.6","3.6","0.00","0.00"
"00:14:58","47.9","34.3","59","30.00","11","0.4","2.4","0.00","0.00"
"00:19:57","47.7","34.1","59","30.00","352","0.8","4.8","0.00","0.00"
"00:24:56","47.4","33.8","59","30.00","344","0","0","0.00","0.00"
"00:29:57","47.1","33.9","60","30.01","343","0.6","3.6","0.00","0.00"
"00:34:56","46.8","34.2","61.5","30.01","343","0.8","2.4","0.00","0.00"
"00:39:59","46.4","33.9","61.6","30.01","343","0.3","1.2","0.00","0.00"
"00:44:57","46.1","34.1","62.9","30.02","343","0.3","2.4","0.00","0.00"
"00:49:57","45.7","33.7","62.8","30.02","343","0.3","2.4","0.00","0.00"
"00:54:56","45.5","33.6","63","30.02","343","0.2","2.4","0.00","0.00"
"00:59:57","45.3","33.7","63.9","30.03","343","1","2.4","0.00","0.00"
"01:04:58","45","33.5","64","30.03","343","0.1","2.3","0.00","0.00"
"01:09:56","44.7","33.6","64.9","30.03","343","0.1","1.2","0.00","0.00"
"01:14:57","44.4","33.6","65.4","30.03","343","0","0","0.00","0.00"
"01:19:59","44.1","33.9","67.4","30.03","343","0","0","0.00","0.00"
"01:24:58","43.6","33.7","68","30.03","343","0","0","0.00","0.00"
"01:29:56","43.3","33.7","68.7","30.03","343","0","0","0.00","0.00"
"01:34:59","43.1","33.6","69","30.03","343","0","0","0.00","0.00"
"01:39:59","42.8","33.3","69","30.03","343","0","0","0.00","0.00"
"01:44:57","42.6","33.2","69.3","30.03","343","0","0","0.00","0.00"
"01:49:57","42.3","33.3","70.1","30.03","343","0","0","0.00","0.00"
"01:54:56","42.1","33.5","71.4","30.03","343","0","0","0.00","0.00"
"01:59:58","41.9","33.5","72","30.03","343","0","0","0.00","0.00"
"02:04:57","41.6","33.4","72.4","30.03","343","0","0","0.00","0.00"
"02:09:57","41.3","33.4","73.4","30.03","343","0","0","0.00","0.00"
"02:14:59","41","33.4","74.2","30.03","343","0","0","0.00","0.00"
"02:19:58","40.8","33.5","75","30.03","343","0","0","0.00","0.00"
"02:24:58","40.6","33.3","75","30.03","343","0","0","0.00","0.00"
"02:29:59","40.3","33.3","75.8","30.03","343","0","0","0.00","0.00"
"02:34:58","40","33.3","76.5","30.03","343","0","0","0.00","0.00"
"02:39:57","39.7","33.3","77.5","30.03","343","0","0","0.00","0.00"
"02:44:59","39.4","33.1","78","30.03","343","0","0","0.00","0.00"
"02:49:58","39.1","32.8","78","30.03","343","0","0","0.00","0.00"
"02:54:57","38.9","32.9","79","30.03","343","0","0","0.00","0.00"
"02:59:57","38.8","33","79.4","30.03","343","0","0","0.00","0.00"
"03:04:58","38.7","33.1","80","30.03","343","0","0","0.00","0.00"
"03:09:57","38.6","33","80.2","30.03","343","0","0","0.00","0.00"
"03:14:59","38.5","33.2","81","30.03","343","0","0","0.00","0.00"
"03:19:58","38.3","33","81.2","30.03","343","0","0","0.00","0.00"
"03:24:57","38.1","33.1","82","30.03","343","0","0","0.00","0.00"
"03:29:58","37.9","32.9","82.3","30.04","343","0","0","0.00","0.00"
"03:34:57","37.7","33","83","30.04","343","0","1.2","0.00","0.00"
"03:39:56","37.6","33","83.4","30.04","343","0","1.2","0.00","0.00"
"03:44:58","37.6","32.9","83","30.04","343","0.5","2.4","0.00","0.00"
"03:49:56","37.4","32.7","83","30.04","343","0.2","2.4","0.00","0.00"
"03:54:59","37.3","32.6","83","30.04","343","0.3","2.3","0.00","0.00"
"03:59:56","37.3","32.9","84","30.05","343","0","0","0.00","0.00"
"04:04:56","37.2","32.7","83.7","30.05","343","0.2","1.2","0.00","0.00"
"04:09:58","37","32.4","83.1","30.05","343","0","1.2","0.00","0.00"
"04:14:56","36.8","32.4","84","30.05","343","0.6","3.6","0.00","0.00"
"04:19:59","36.7","32.5","84.7","30.05","343","0.2","3.5","0.00","0.00"
"04:24:59","36.6","32.5","85","30.05","343","0","0","0.00","0.00"
"04:29:57","36.5","32.4","85","30.05","343","0","0","0.00","0.00"
"04:34:56","36.3","32.2","85.1","30.05","343","0","0","0.00","0.00"
"04:39:59","36.2","32.4","85.9","30.05","343","0","0","0.00","0.00"
"04:44:57","36.1","32.1","85.3","30.06","343","0.4","1.2","0.00","0.00"
"04:49:59","36","32.1","85.8","30.06","343","0","0","0.00","0.00"
"04:54:58","35.8","32","86","30.06","343","0","1.2","0.00","0.00"
"04:59:58","35.7","32","86.3","30.06","343","0","1.2","0.00","0.00"
"05:04:58","35.5","32","87","30.06","343","0","0","0.00","0.00"
"05:09:58","35.4","31.9","87","30.06","343","0","1.2","0.00","0.00"
"05:14:58","35.3","31.9","87.1","30.06","343","0","0","0.00","0.00"
"05:19:58","35.2","31.9","87.6","30.06","343","0","0","0.00","0.00"
"05:24:56","35.1","31.9","88","30.06","343","0","0","0.00","0.00"
"05:29:57","34.9","31.7","88","30.07","343","0","0","0.00","0.00"
"05:34:56","34.8","31.6","88","30.07","343","0","0","0.00","0.00"
"05:39:59","34.7","31.8","89","30.07","343","0","0","0.00","0.00"
"05:44:56","34.7","31.8","89","30.08","343","0","0","0.00","0.00"
"05:49:59","34.6","31.7","89","30.08","343","0","0","0.00","0.00"
"05:54:57","34.6","31.7","89.3","30.08","343","0","0","0.00","0.00"
"05:59:58","34.4","31.8","90","30.08","343","0","0","0.00","0.00"
"06:04:58","34.4","31.8","90","30.08","343","0.2","1.2","0.00","0.00"
"06:09:58","34.3","31.7","90","30.08","343","0","0","0.00","0.00"
"06:14:56","34.3","31.8","90.3","30.09","343","0","0","0.00","0.00"
"06:19:56","34.3","31.9","90.8","30.09","343","0.1","1.2","0.00","0.00"
"06:24:58","34.4","32","90.9","30.09","343","0","0","0.00","0.00"
"06:29:59","34.4","31.9","90.5","30.10","343","0","0","0.00","0.00"
"06:34:58","34.3","31.9","90.7","30.10","343","0","0","0.00","0.00"
"06:39:57","34.2","31.8","91","30.10","343","0","0","0.00","0.00"
"06:44:58","34.2","31.8","91","30.11","343","0","0","0.00","0.00"
"06:49:57","34.1","31.7","91","30.11","343","0","0","0.00","0.00"
"06:54:59","34.1","31.7","91","30.11","343","0","0","0.00","0.00"
"06:59:59","34.3","32","91.5","30.12","343","0","0","0.00","0.00"
"07:04:59","34.5","32.1","91","30.12","343","0","0","0.00","0.00"
"07:09:58","34.8","32.4","91","30.12","343","0","0","0.00","0.00"
"07:14:56","35.2","32.8","91","30.12","343","0.2","2.4","0.00","0.00"
"07:19:59","35.7","33.2","90.5","30.12","343","0","0","0.00","0.00"
"07:24:57","36.2","33.4","89.5","30.12","343","0","1.2","0.00","0.00"
"07:29:57","36.6","33.7","89","30.13","343","0","0","0.00","0.00"
"07:34:56","37.1","34","88.4","30.13","343","0","0","0.00","0.00"
"07:39:59","37.6","34.3","87.8","30.13","343","0.2","2.4","0.00","0.00"
"07:44:59","38.3","34.7","86.4","30.14","343","0.4","2.4","0.00","0.00"
"07:49:58","39.2","35.1","85","30.14","343","0.1","2.4","0.00","0.00"
"07:54:56","40.3","35.8","83.9","30.14","342","0.9","3.6","0.00","0.00"
"07:59:57","41.6","36.3","81.4","30.14","342","0.2","1.2","0.00","0.00"
"08:04:52","43","36.8","78.8","30.14","342","0.6","2.4","0.00","0.00"
"08:09:59","44.3","37.6","77.2","30.14","47","0.5","3.6","0.00","0.00"
"08:14:56","45.3","37.8","75","30.14","17","0.6","2.4","0.00","0.00"
"08:19:58","46.4","38.4","73.5","30.14","14","0.4","2.4","0.00","0.00"
"08:24:56","47.4","38.7","71.6","30.14","12","0.3","2.3","0.00","0.00"
"08:29:57","48.2","39.2","71","30.14","10","0.7","2.4","0.00","0.00"
"08:34:58","49.1","40.1","71.1","30.14","24","0.9","3.6","0.00","0.00"
"08:39:57","50","40.6","70","30.14","120","2.1","4.8","0.00","0.00"
"08:44:58","51","40.8","68.2","30.14","195","3.2","6","0.00","0.00"
"08:49:56","51.8","41.3","67.5","30.14","212","3.4","7.2","0.00","0.00"
"08:54:58","52.3","40.8","64.7","30.14","197","3.8","8.4","0.00","0.00"
"08:59:58","52.8","41","64.2","30.14","186","2.6","4.8","0.00","0.00"
"09:04:57","53.3","41.7","64.6","30.14","197","4.3","10.8","0.00","0.00"
"09:09:56","53.7","41.9","64.3","30.14","201","3.8","10.4","0.00","0.00"
"09:14:57","54.2","42.4","64.2","30.15","191","3.4","6","0.00","0.00"
"09:19:59","54.7","41.8","61.8","30.15","186","4.8","8.4","0.00","0.00"
"09:24:57","55.2","42.1","61.3","30.15","188","3.9","10.8","0.00","0.00"
"09:29:59","55.7","42.6","61.3","30.15","213","4.3","7.2","0.00","0.00"
"09:34:58","56","42.3","59.9","30.14","205","4.4","9.6","0.00","0.00"
"09:39:58","56.2","42.1","59.1","30.14","224","5","10.8","0.00","0.00"
"09:44:59","56.7","42.4","58.9","30.14","173","3.5","10.8","0.00","0.00"
"09:49:57","57.3","41.6","55.8","30.13","191","4.4","10.8","0.00","0.00"
"09:54:59","57","40.5","54","30.13","189","4.9","10.8","0.00","0.00"
"09:59:59","57.4","41.6","55.5","30.14","202","2.6","6.9","0.00","0.00"
"10:04:58","58.1","42.5","56.1","30.14","230","4.1","7.2","0.00","0.00"
"10:09:57","58","42.3","55.7","30.14","216","4.1","8.4","0.00","0.00"
"10:14:57","58.6","42.1","54.2","30.14","215","2.7","8.4","0.00","0.00"
"10:19:56","58.8","41.7","53.1","30.14","191","4.6","10.8","0.00","0.00"
"10:24:57","59","42.3","53.9","30.14","223","3.5","7.2","0.00","0.00"
"10:29:57","59.1","41.9","52.9","30.14","195","3.4","6.9","0.00","0.00"
"10:34:59","59.6","41.7","51.9","30.14","275","3.8","6","0.00","0.00"
"10:39:58","60.1","38.3","44.4","30.14","291","3.4","7.2","0.00","0.00"
"10:44:58","59.8","38.8","45.7","30.14","257","3.6","8.4","0.00","0.00"
"10:49:56","60.1","38.5","44.8","30.14","232","3.3","8.4","0.00","0.00"
"10:54:58","60.2","38.4","44.4","30.14","227","5.1","9.6","0.00","0.00"
"10:59:58","60.8","38.9","44.3","30.14","248","3.9","8.4","0.00","0.00"
"11:04:57","61.2","38.9","43.9","30.13","268","3.8","8.1","0.00","0.00"
"11:09:56","61.7","39.2","43.4","30.13","255","4.5","9.6","0.00","0.00"
"11:14:57","61.7","39.3","43.7","30.13","233","2.5","7.2","0.00","0.00"
"11:19:56","62.3","40.5","44.7","30.13","232","4.6","7.2","0.00","0.00"
"11:24:58","62.2","39.9","44","30.13","301","3.5","12","0.00","0.00"
"11:29:58","63","40.4","43.5","30.13","258","4.7","13.2","0.00","0.00"
"11:34:56","62.1","38.5","41.6","30.13","310","4.3","12.7","0.00","0.00"
"11:39:59","62.9","40.3","43.5","30.13","255","4.1","8.4","0.00","0.00"
"11:44:59","63.9","41.5","44.1","30.13","222","3.7","8.4","0.00","0.00"
"11:49:57","64.5","40.2","41","30.12","218","5.5","13.2","0.00","0.00"
"11:54:59","64.6","39.1","39","30.12","225","5.1","12","0.00","0.00"
"11:59:59","64.6","39.4","39.6","30.12","283","3.5","10.8","0.00","0.00"
"12:04:58","65.4","40.3","39.9","30.12","236","3","7.2","0.00","0.00"
"12:09:57","64.9","38.6","38","30.12","304","4.6","10.8","0.00","0.00"
"12:14:59","64.8","40.2","40.6","30.13","261","3.8","7.2","0.00","0.00"
"12:19:58","64.6","37.6","36.9","30.13","320","5.2","13.2","0.00","0.00"
"12:24:56","64.5","40.2","41","30.13","302","3.4","12.7","0.00","0.00"
"12:29:56","65.2","40.7","40.7","30.13","19","3.5","9.2","0.00","0.00"
"12:34:58","66.5","40.8","39.2","30.12","239","4.9","12","0.00","0.00"
"12:39:56","66.2","39.9","38.2","30.12","201","4.7","10.4","0.00","0.00"
"12:44:56","66.4","40.3","38.5","30.12","186","2.7","8.4","0.00","0.00"
"12:49:59","67.4","41.7","39.2","30.12","208","4.2","8.4","0.00","0.00"
"12:54:57","67.9","41","37.6","30.12","227","4.3","8.4","0.00","0.00"
"12:59:57","67.7","38.8","34.8","30.12","328","4.9","13.2","0.00","0.00"
"13:04:56","67.3","39.2","35.8","30.11","289","4.7","8.4","0.00","0.00"
"13:09:58","67.1","37.7","33.9","30.11","272","3.4","8.4","0.00","0.00"
"13:14:59","67.2","40.6","37.9","30.11","233","4","8.4","0.00","0.00"
"13:19:57","67.9","39.8","35.8","30.11","61","2.9","7.2","0.00","0.00"
"13:24:59","68.6","41.3","37.1","30.11","293","2.8","6","0.00","0.00"
"13:29:58","68.8","40.1","35.3","30.11","236","4.3","13.2","0.00","0.00"
"13:34:59","69.3","39.1","33.3","30.10","283","5.6","12","0.00","0.00"
"13:39:56","68.9","38.7","33.3","30.10","246","6","13.2","0.00","0.00"
"13:44:56","69.3","38.9","33.1","30.10","328","5.8","13.2","0.00","0.00"
"13:49:58","69.3","38.8","32.9","30.09","308","5.6","15","0.00","0.00"
"13:54:56","69.5","37.9","31.5","30.09","297","4.3","13.2","0.00","0.00"
"13:59:57","69.8","39.8","33.6","30.09","278","3.5","7.2","0.00","0.00"
"14:04:56","70.5","39.4","32.3","30.09","309","3","8.4","0.00","0.00"
"14:09:59","70.9","39.2","31.7","30.09","339","3.4","14.4","0.00","0.00"
"14:14:56","71.9","42","34.1","30.09","231","3.7","15","0.00","0.00"
"14:19:58","72.2","42","33.8","30.09","254","1.5","6","0.00","0.00"
"14:24:56","72.1","39","30.1","30.09","266","4.4","10.8","0.00","0.00"
"14:29:59","72.2","38.5","29.5","30.09","296","2.7","6","0.00","0.00"
"14:34:57","72.4","37.9","28.6","30.08","239","5.3","12","0.00","0.00"
"14:39:59","72.3","38.2","29","30.08","257","4.1","7.2","0.00","0.00"
"14:44:56","72.5","38.8","29.5","30.08","281","2.9","6.9","0.00","0.00"
"14:49:58","72.7","37","27.3","30.08","287","3.6","7.2","0.00","0.00"
"14:54:56","73.1","39.4","29.7","30.08","311","2.8","10.8","0.00","0.00"
"14:59:56","73.5","39.5","29.5","30.08","303","2.4","10.4","0.00","0.00"
"15:04:59","73.4","39","28.9","30.08","245","2","4.8","0.00","0.00"
"15:09:58","73.7","38.9","28.5","30.08","305","3","7.2","0.00","0.00"
"15:14:56","74.2","37.2","26.1","30.08","328","4.7","13.2","0.00","0.00"
"15:19:58","73.6","36.1","25.6","30.07","343","5.6","15","0.00","0.00"
"15:24:56","73.8","37.2","26.5","30.07","347","3.8","8.4","0.00","0.00"
"15:29:57","73.6","35.8","25.4","30.07","277","4.8","12","0.00","0.00"
"15:34:59","73.9","36.8","26","30.06","309","3.2","10.4","0.00","0.00"
"15:39:57","74.4","38.6","27.5","30.06","216","2.2","6","0.00","0.00"
"15:44:58","74.6","36.3","25","30.06","300","4.4","12","0.00","0.00"
"15:49:56","74.6","36.7","25.3","30.05","259","3.5","8.4","0.00","0.00"
"15:54:58","75.2","38.2","26.3","30.05","264","2.1","6","0.00","0.00"
"15:59:59","75.8","37.3","24.9","30.05","319","3.9","8.4","0.00","0.00"
"16:04:58","75.4","36.8","24.7","30.04","317","4.1","10.8","0.00","0.00"
"16:09:56","75.4","35.7","23.6","30.04","332","4.7","12","0.00","0.00"
"16:14:58","76.1","39","26.3","30.04","278","2.1","4.8","0.00","0.00"
"16:19:57","76.2","37.5","24.8","30.04","290","3.1","7.2","0.00","0.00"
"16:24:59","76","35.9","23.3","30.04","321","3.7","8.4","0.00","0.00"
"16:29:56","75.6","38.7","26.6","30.04","338","1","5.8","0.00","0.00"
"16:34:58","76.5","38.1","25.2","30.03","352","3.3","8.4","0.00","0.00"
"16:39:57","76.2","36.7","24","30.03","299","2.3","5.8","0.00","0.00"
"16:44:59","76.3","38.2","25.4","30.03","299","1.4","3.5","0.00","0.00"
"16:49:57","76","36.5","24","30.03","278","1.9","3.6","0.00","0.00"
"16:54:59","76.3","37.7","24.9","30.03","297","1.1","4.8","0.00","0.00"
"16:59:56","76.2","35.6","22.9","30.03","304","0.8","2.4","0.00","0.00"
"17:04:56","75.9","38.4","25.9","30.03","302","1.5","3.6","0.00","0.00"
"17:09:58","76.4","38.5","25.5","30.03","249","1.6","3.6","0.00","0.00"
"17:14:58","76.6","36.7","23.7","30.03","13","2.2","4.8","0.00","0.00"
"17:19:57","76.2","37","24.3","30.03","57","2","3.6","0.00","0.00"
"17:24:56","76.4","37.6","24.8","30.03","113","1.8","3.6","0.00","0.00"
"17:29:58","76.8","39.3","26","30.04","153","2.3","4.8","0.00","0.00"
"17:34:56","76.7","38.5","25.3","30.04","179","2.7","6","0.00","0.00"
"17:39:59","76.5","35.6","22.7","30.04","130","2.1","4.8","0.00","0.00"
"17:44:56","76.4","35.7","23","30.04","134","0.8","2.4","0.00","0.00"
"17:49:59","76.2","36.3","23.6","30.04","134","1.6","3.6","0.00","0.00"
"17:54:57","76.5","39.7","26.8","30.04","135","2.6","7.2","0.00","0.00"
"17:59:58","76.1","39.7","27.1","30.04","159","2.8","6.9","0.00","0.00"
"18:04:57","75.8","40.8","28.4","30.04","183","3.7","7.2","0.00","0.00"
"18:09:56","75.6","40.8","28.7","30.04","162","3.8","7.2","0.00","0.00"
"18:14:57","75.5","40.6","28.5","30.04","164","4","7.2","0.00","0.00"
"18:19:59","75.2","41.3","29.7","30.04","211","4.5","10.8","0.00","0.00"
"18:24:58","74.8","40.8","29.4","30.04","193","3.8","7.2","0.00","0.00"
"18:29:59","74.3","40.9","30.1","30.05","190","3.7","10.8","0.00","0.00"
"18:34:57","73.8","40.4","30","30.05","195","4.8","12","0.00","0.00"
"18:39:59","73.6","40.5","30.3","30.05","192","3","6.9","0.00","0.00"
"18:44:56","73.6","40.6","30.5","30.05","188","3.4","7.2","0.00","0.00"
"18:49:59","73.6","40.8","30.7","30.05","202","3.7","7.2","0.00","0.00"
"18:54:56","73.3","40.9","31.1","30.05","197","3.1","7.2","0.00","0.00"
"18:59:56","73","41.2","31.8","30.06","185","3.3","6","0.00","0.00"
"19:04:59","72.7","41.5","32.6","30.06","190","3","6","0.00","0.00"
"19:09:57","72.3","42","33.6","30.06","207","2.6","4.8","0.00","0.00"
"19:14:59","71.8","42.2","34.4","30.06","188","2.5","6","0.00","0.00"
"19:19:57","71.4","42","34.7","30.06","183","2.8","4.8","0.00","0.00"
"19:24:56","71.1","42","35","30.06","183","1.4","4.6","0.00","0.00"
"19:29:56","70.8","41.9","35.2","30.06","183","0","2.3","0.00","0.00"
"19:34:59","70.5","41.9","35.6","30.06","221","0.7","3.6","0.00","0.00"
"19:39:58","70.1","42.1","36.2","30.06","218","0.9","3.6","0.00","0.00"
"19:44:56","69.8","41.9","36.5","30.06","218","0.3","2.4","0.00","0.00"
"19:49:59","69.3","41.8","36.9","30.06","218","0.1","2.3","0.00","0.00"
"19:54:58","68.7","42.4","38.5","30.06","218","0","0","0.00","0.00"
"19:59:56","68","42.1","39","30.07","218","0","0","0.00","0.00"
"20:04:57","67.3","42","39.8","30.07","218","0","0","0.00","0.00"
"20:09:56","66.6","42.1","41","30.07","218","0","1.2","0.00","0.00"
"20:14:59","65.9","42.1","42","30.07","218","0","1.2","0.00","0.00"
"20:19:59","65.4","42.8","43.8","30.07","218","0.1","1.2","0.00","0.00"
"20:24:58","64.7","43.1","45.4","30.07","218","1.1","3.6","0.00","0.00"
"20:29:56","64","43.9","48","30.07","218","1.2","3.5","0.00","0.00"
"20:34:56","63.4","44.1","49.4","30.07","218","0.1","2.3","0.00","0.00"
"20:39:56","62.8","44.4","51","30.07","218","0","1.2","0.00","0.00"
"20:44:59","62.2","44.1","51.6","30.08","218","0.2","1.2","0.00","0.00"
"20:49:58","61.7","44.6","53.4","30.08","218","0","0","0.00","0.00"
"20:54:58","61.1","44.6","54.5","30.08","218","0","0","0.00","0.00"
"20:59:56","60.6","44.6","55.5","30.09","218","0","0","0.00","0.00"
"21:04:56","60.1","44.1","55.5","30.09","218","0","0","0.00","0.00"
"21:09:59","59.7","44","56","30.09","218","0.1","1.2","0.00","0.00"
"21:14:58","59.2","44.1","57.4","30.09","218","0.2","3.6","0.00","0.00"
"21:19:57","58.7","44.4","59","30.09","219","2.3","3.6","0.00","0.00"
"21:24:57","58.5","44.4","59.5","30.09","219","0.2","2.3","0.00","0.00"
"21:29:58","58.2","44.6","60.4","30.09","219","0.3","1.2","0.00","0.00"
"21:34:58","58","44.5","60.8","30.09","219","0","0","0.00","0.00"
"21:39:58","57.7","44.9","62.3","30.09","219","0","0","0.00","0.00"
"21:44:58","57.3","44.4","62","30.10","219","0","1.2","0.00","0.00"
"21:49:58","57","44.5","62.9","30.10","219","0","0","0.00","0.00"
"21:54:57","56.7","44.6","63.8","30.10","219","0","0","0.00","0.00"
"21:59:58","56.4","44.9","65.3","30.10","219","0","0","0.00","0.00"
"22:04:59","56","44.8","66","30.10","219","0","0","0.00","0.00"
"22:09:57","55.8","44.9","66.8","30.10","219","0","0","0.00","0.00"
"22:14:59","55.6","45.1","67.8","30.10","219","0","0","0.00","0.00"
"22:19:59","55.5","45","67.6","30.10","219","0","0","0.00","0.00"
"22:24:58","55.5","45.1","68","30.10","219","0","0","0.00","0.00"
"22:29:59","55.4","45","68","30.10","219","0","0","0.00","0.00"
"22:34:58","55.2","44.8","68","30.10","219","0","0","0.00","0.00"
"22:39:58","54.9","44.5","68","30.10","219","0","0","0.00","0.00"
"22:44:56","54.8","44.4","68","30.11","219","0","0","0.00","0.00"
"22:49:59","54.6","44.6","68.8","30.11","219","0","0","0.00","0.00"
"22:54:58","54.4","44.3","68.8","30.11","219","0","0","0.00","0.00"
"22:59:56","54.2","44.2","69.1","30.12","219","0","0","0.00","0.00"
"23:04:56","53.9","44.6","70.8","30.12","219","0","0","0.00","0.00"
"23:09:59","53.6","44.8","72","30.12","219","0","0","0.00","0.00"
"23:14:57","53.4","44.8","72.5","30.12","219","0","0","0.00","0.00"
"23:19:56","53.3","44.4","71.9","30.12","219","0","0","0.00","0.00"
"23:24:58","53.1","44.3","72","30.12","219","0","0","0.00","0.00"
"23:29:56","52.9","44.5","73.1","30.12","219","0","0","0.00","0.00"
"23:34:58","52.7","44.6","74","30.12","219","0","0","0.00","0.00"
"23:39:57","52.5","44.6","74.4","30.12","219","0","0","0.00","0.00"
"23:44:59","52.3","44.6","75","30.13","219","0","0","0.00","0.00"
